CW0262 Weather Reports


Display with metric or nautical units.
time (UTC)temp
F
wind
direction
speed
MPH
gust
MPH
rain 1hr
in
rain 24hr
in
rain mn
in
humidity
%
barometer
mb
20260503021704 77 209 2.0 3.0 0.00 0.00 0.00 77 1012.2
20260503014704 77 220 0.0 3.0 0.00 0.00 0.00 75 1011.0
20260503014205 77 206 0.0 3.0 0.00 0.00 0.00 75 1011.0
20260503013704 77 264 1.0 3.0 0.00 0.00 0.00 75 1011.0
20260503013204 77 280 2.0 6.0 0.00 0.00 0.00 75 1011.0
20260503011703 77 298 5.0 8.0 0.00 0.00 0.00 75 1011.0
20260503011203 77 314 1.0 3.0 0.00 0.00 0.00 75 1011.0
20260503010204 77 311 8.0 10.0 0.00 0.00 0.00 75 1011.0
20260503004204 78 339 8.0 13.0 0.00 0.00 0.00 75 1011.0
20260503003704 78 315 7.0 9.0 0.00 0.00 0.00 75 1011.0
20260503003205 78 326 7.0 14.0 0.00 0.00 0.00 75 1011.0
20260503001704 80 342 10.0 17.0 0.00 0.00 0.00 71 1010.0
20260503001204 80 314 9.0 13.0 0.00 0.00 0.00 70 1010.0
20260503000705 81 322 9.0 15.0 0.00 0.00 0.00 70 1010.0
20260503000204 81 321 12.0 15.0 0.00 0.00 0.00 69 1010.0
20260502234704 83 316 8.0 13.0 0.00 0.00 0.00 67 1010.0
20260502233705 84 321 7.0 12.0 0.00 0.00 0.00 66 1009.0
20260502233203 84 340 8.0 17.0 0.00 0.00 0.00 64 1009.0
20260502231704 86 301 6.0 9.0 0.00 0.00 0.00 58 1009.0
20260502231204 86 292 4.0 10.0 0.00 0.00 0.00 58 1009.0
20260502230703 86 309 6.0 10.0 0.00 0.00 0.00 58 1009.0
20260502230205 86 292 6.0 13.0 0.00 0.00 0.00 58 1009.0
20260502224705 87 306 7.0 10.0 0.00 0.00 0.00 56 1008.0
20260502224203 87 300 6.0 10.0 0.00 0.00 0.00 56 1008.0
20260502223204 88 311 8.0 14.0 0.00 0.00 0.00 56 1008.0
20260502221704 88 277 6.0 10.0 0.00 0.00 0.00 55 1008.0
20260502221204 89 264 7.0 15.0 0.00 0.00 0.00 55 1008.0
20260502220704 89 282 8.0 15.0 0.00 0.00 0.00 55 1008.0
20260502220204 89 255 11.0 15.0 0.00 0.00 0.00 55 1008.0
20260502214205 91 292 7.0 13.0 0.00 0.00 0.00 53 1008.0
20260502213705 91 241 7.0 15.0 0.00 0.00 0.00 53 1008.0
20260502213203 91 256 10.0 17.0 0.00 0.00 0.00 52 1008.0
20260502211704 92 252 11.0 16.0 0.00 0.00 0.00 51 1008.0
20260502211205 92 240 12.0 18.0 0.00 0.00 0.00 51 1008.0
20260502210704 92 232 10.0 16.0 0.00 0.00 0.00 51 1008.0
20260502210205 92 269 11.0 20.0 0.00 0.00 0.00 50 1008.0
20260502204704 93 280 9.0 13.0 0.00 0.00 0.00 50 1008.0
20260502204204 93 277 8.0 18.0 0.00 0.00 0.00 49 1008.0
20260502203704 93 285 10.0 18.0 0.00 0.00 0.00 49 1008.0
20260502203203 93 272 11.0 18.0 0.00 0.00 0.00 49 1008.0
20260502201203 95 261 10.0 20.0 0.00 0.00 0.00 49 1008.0
20260502200704 95 275 12.0 22.0 0.00 0.00 0.00 49 1008.0
20260502200204 95 266 12.0 23.0 0.00 0.00 0.00 48 1008.0
20260502194703 96 239 14.0 21.0 0.00 0.00 0.00 49 1008.0
20260502193705 96 236 14.0 20.0 0.00 0.00 0.00 50 1008.0
20260502193204 96 251 14.0 22.0 0.00 0.00 0.00 49 1008.0
20260502191704 96 254 16.0 24.0 0.00 0.00 0.00 49 1008.0
20260502191204 95 247 11.0 17.0 0.00 0.00 0.00 51 1008.0
20260502190704 96 250 12.0 23.0 0.00 0.00 0.00 53 1008.0
20260502190204 96 238 13.0 23.0 0.00 0.00 0.00 52 1008.0
20260502184704 94 240 16.0 22.0 0.00 0.00 0.00 54 1009.0
20260502184204 94 234 14.0 22.0 0.00 0.00 0.00 54 1009.0
20260502183704 95 246 16.0 24.0 0.00 0.00 0.00 54 1009.0
20260502183205 95 242 14.0 24.0 0.00 0.00 0.00 54 1009.0
20260502181703 96 231 14.0 22.0 0.00 0.00 0.00 53 1009.0
20260502180704 96 230 15.0 20.0 0.00 0.00 0.00 54 1009.0
20260502180204 96 273 13.0 20.0 0.00 0.00 0.00 54 1009.0
20260502170204 94 232 13.0 18.0 0.00 0.00 0.00 56 1009.0
20260502164205 91 216 12.0 21.0 0.00 0.00 0.00 58 1010.0
20260502163704 91 254 12.0 21.0 0.00 0.00 0.00 58 1010.0
20260502163204 91 235 11.0 20.0 0.00 0.00 0.00 57 1010.0
20260502161203 93 208 10.0 16.0 0.00 0.00 0.00 58 1010.0
20260502160704 92 242 11.0 17.0 0.00 0.00 0.00 58 1010.0
20260502151204 94 234 12.0 17.0 0.00 0.00 0.00 55 1010.0
20260502150704 94 231 10.0 18.0 0.00 0.00 0.00 56 1010.0
20260502150204 93 233 13.0 17.0 0.00 0.00 0.00 55 1010.0
20260502130704 88 213 9.0 13.0 0.00 0.00 0.00 61 1010.0
20260502130204 87 225 7.0 13.0 0.00 0.00 0.00 63 1010.0
20260502123704 81 216 7.0 10.0 0.00 0.00 0.00 74 1010.0
20260502123204 81 207 6.0 10.0 0.00 0.00 0.00 74 1010.0
20260502121704 79 217 6.0 8.0 0.00 0.00 0.00 78 1010.0
20260502121204 78 190 5.0 6.0 0.00 0.00 0.00 81 1010.0
20260502120705 77 212 3.0 5.0 0.00 0.00 0.00 82 1010.0
20260502120204 77 217 4.0 7.0 0.00 0.00 0.00 82 1010.0
20260502114703 75 229 3.0 6.0 0.00 0.00 0.00 85 1010.0
20260502114204 74 237 2.0 3.0 0.00 0.00 0.00 86 1010.0
20260502113704 74 229 2.0 3.0 0.00 0.00 0.00 86 1010.0
20260502113204 74 234 3.0 5.0 0.00 0.00 0.00 86 1010.0
20260502111703 73 237 2.0 3.0 0.00 0.00 0.00 89 1010.0
20260502111204 72 224 3.0 6.0 0.00 0.00 0.00 89 1010.0
20260502110704 71 236 2.0 3.0 0.00 0.00 0.00 90 1010.0
20260502110204 71 231 3.0 6.0 0.00 0.00 0.00 90 1010.0
20260502104704 71 231 3.0 3.0 0.00 0.00 0.00 90 1010.0
20260502104204 71 232 1.0 6.0 0.00 0.00 0.00 90 1010.0
20260502101704 71 231 3.0 6.0 0.00 0.00 0.00 91 1010.0
20260502101204 71 233 2.0 5.0 0.00 0.00 0.00 91 1010.0
20260502100705 71 231 2.0 3.0 0.00 0.00 0.00 92 1010.0
20260502100204 71 247 3.0 6.0 0.00 0.00 0.00 92 1010.0
20260502091204 72 234 5.0 6.0 0.00 0.00 0.00 91 1010.0
20260502090705 72 213 3.0 6.0 0.00 0.00 0.00 90 1010.0
20260502090204 72 197 3.0 6.0 0.00 0.00 0.00 90 1010.0
20260502071204 74 234 6.0 8.0 0.00 0.00 0.00 89 1010.0
20260502070704 74 232 6.0 8.0 0.00 0.00 0.00 89 1010.0
20260502070205 75 219 5.0 7.0 0.00 0.00 0.00 89 1010.0
20260502064703 75 224 4.0 6.0 0.00 0.00 0.00 89 1010.0
20260502063703 75 239 5.0 6.0 0.00 0.00 0.00 88 1010.0
20260502063203 75 231 4.0 6.0 0.00 0.00 0.00 87 1010.0
20260502061704 75 227 2.0 5.0 0.00 0.00 0.00 87 1010.0
20260502061204 75 226 3.0 3.0 0.00 0.00 0.00 86 1010.0
20260502060704 75 219 3.0 3.0 0.00 0.00 0.00 86 1010.0
20260502060204 75 241 3.0 5.0 0.00 0.00 0.00 86 1010.0
20260502054704 76 232 0.0 3.0 0.00 0.00 0.00 85 1010.0
20260502054204 76 237 1.0 3.0 0.00 0.00 0.00 85 1010.0
20260502053704 76 238 1.0 3.0 0.00 0.00 0.00 85 1010.0
20260502053205 76 230 1.0 3.0 0.00 0.00 0.00 85 1010.0
20260502051704 76 234 2.0 3.0 0.00 0.00 0.00 84 1010.0
20260502051204 76 243 2.0 3.0 0.00 0.00 0.00 83 1010.0
20260502050704 77 265 3.0 5.0 0.00 0.00 0.00 83 1010.0
20260502050204 77 258 3.0 5.0 0.00 0.00 0.00 83 1010.0
20260502044704 77 228 3.0 5.0 0.00 0.00 0.00 81 1010.0
20260502044204 77 228 3.0 6.0 0.00 0.00 0.00 81 1010.0
20260502043703 77 221 3.0 3.0 0.00 0.00 0.00 81 1010.0
20260502043204 77 220 3.0 6.0 0.00 0.00 0.00 81 1010.0
20260502041705 78 228 5.0 6.0 0.00 0.00 0.00 80 1010.0
20260502041204 78 234 3.0 6.0 0.00 0.00 0.00 80 1010.0
20260502040704 78 228 5.0 6.0 0.00 0.00 0.00 80 1010.0
20260502040204 78 219 3.0 6.0 0.00 0.00 0.00 79 1010.0
20260502034204 78 217 5.0 8.0 0.00 0.00 0.00 79 1010.0
20260502033704 79 221 5.0 6.0 0.00 0.00 0.00 79 1010.0
20260502033204 79 214 6.0 8.0 0.00 0.00 0.00 79 1010.0
20260502031704 79 198 5.0 7.0 0.00 0.00 0.00 78 1010.0
20260502030204 79 219 6.0 9.0 0.00 0.00 0.00 77 1010.0
20260502024205 80 185 6.0 8.0 0.00 0.00 0.00 76 1010.0
20260502023703 80 171 6.0 9.0 0.00 0.00 0.00 76 1010.0
20260502023205 80 186 6.0 10.0 0.00 0.00 0.00 75 1010.0